Regional Weather Roundup
Issued by NWS Boston, MA

Home | Current Version | Previous Version | Text Only | Print | Product List | Glossary On
Versions: 1 2 3 4 5 6 7 8 9 10 11 12 13 14 15 16 17 18 19 20 21 22 23 24 25 26 27
000
ASUS41 KBOX 291810
RWRBOX

REGIONAL WEATHER ROUNDUP
NATIONAL WEATHER SERVICE TAUNTON MA
200 PM EDT THU SEP 29 2016

NOTE:  "FAIR" INDICATES FEW OR NO CLOUDS BELOW 12,000 FEET WITH NO
SIGNIFICANT WEATHER AND/OR OBSTRUCTIONS TO VISIBILITY.

MAZALL-291900-
EASTERN MASSACHUSETTS

CITY           SKY/WX    TMP DP  RH WIND       PRES   REMARKS
BOSTON         CLOUDY    58  49  72 NE20G25   30.49F
6HR MIN TEMP:  56; 6HR MAX TEMP:  59;

BEVERLY        CLOUDY    58  50  75 NE14G21   30.50S
LAWRENCE       PTSUNNY   60  47  61 E13G26    30.52F
BEDFORD        PTSUNNY   59  45  59 NE16      30.48F
BLUE HILL        N/A     54  47  77 NE13G24   30.47S
NORWOOD        CLOUDY    58  48  69 NE13G23   30.48F
MARSHFIELD     CLOUDY    59  52  77 NE9G20    30.47F
PLYMOUTH       CLOUDY    58  50  75 NE14G23   30.47S
TAUNTON        CLOUDY    59  49  69 NE8G18    30.45F
NEW BEDFORD    CLOUDY    61  50  67 NE16G24   30.43F
$$

MAZALL-291900-
CAPE COD AND THE ISLANDS

CITY           SKY/WX    TMP DP  RH WIND       PRES   REMARKS
FALMOUTH       CLOUDY    59  52  77 NE16G25   30.45S
HYANNIS        CLOUDY    61  52  72 NE15G23   30.42F
CHATHAM        CLOUDY    60  53  77 NE10G21   30.44F
PROVINCETOWN   CLOUDY    59  52  77 NE16      30.47F
NANTUCKET      CLOUDY    61  53  75 NE24G32   30.40F
MARTHAS VNYRD  CLOUDY    63  52  67 NE22G29   30.41F
$$

MAZALL-291900-
CENTRAL AND WESTERN MASSACHUSETTS

CITY           SKY/WX    TMP DP  RH WIND       PRES   REMARKS
WORCESTER      FAIR      56  44  64 NE10G20   30.47S
6HR MIN TEMP:  49; 6HR MAX TEMP:  57;

FITCHBURG      FAIR      64  45  49 E9        30.48F
ORANGE         FAIR      63  45  51 E12       30.46F
SPRINGFIELD    MOSUNNY   64  46  51 E9        30.44S
WESTFIELD      FAIR      65  45  48 NE6G16    30.44F
NORTH ADAMS    FAIR      64  44  48 E10       30.44S
PITTSFIELD     FAIR      61  43  51 E9        30.42F
$$

RIZALL-291900-
RHODE ISLAND

CITY           SKY/WX    TMP DP  RH WIND       PRES   REMARKS
PROVIDENCE     PTSUNNY   61  48  62 NE16      30.45F
6HR MIN TEMP:  57; 6HR MAX TEMP:  62;

NEWPORT        CLOUDY    61  51  70 NE13G24   30.43S
BLOCK ISLAND   CLOUDY    60  52  74 NE16G29   30.41
SMITHFIELD     CLOUDY    57  48  72 E14G22    30.46S
WESTERLY       PTSUNNY   63  48  58 NE15G26   30.42S
$$

CTZALL-291900-
CONNECTICUT

CITY           SKY/WX    TMP DP  RH WIND       PRES   REMARKS
BRADLEY INTL   PTSUNNY   64  46  52 NE14      30.44F
6HR MIN TEMP:  56; 6HR MAX TEMP:  64;

HARTFORD       FAIR      63  48  58 NE14G21   30.43F
BRIDGEPORT     FAIR      69  49  48 NE17      30.38F
DANBURY        FAIR      64  47  53 E14G23    30.39F
GROTON         FAIR      67  50  54 E18       30.40S
NEW HAVEN      PTSUNNY   68  49  50 E14       30.39F
CHESTER        FAIR      64  48  55 NE13G20   30.40F
MERIDEN        FAIR      67  48  50 NE8G24    30.41F
WILLIMANTIC    PTSUNNY   64  49  57 NE14      30.44S
OXFORD         MOSUNNY   63  45  51 MISG      30.41F
$$

MEZ002-015-021-024-NHZ003-005-008-011-012-014-VTZ005-008-291900-
NORTHERN NEW ENGLAND

CITY           SKY/WX    TMP DP  RH WIND       PRES   REMARKS
PORTLAND ME    FAIR      62  40  44 NE9       30.52F
6HR MIN TEMP:  49; 6HR MAX TEMP:  63;

BANGOR ME      FAIR      60  38  43 N12       30.53F
CONCORD NH     FAIR      65  41  41 NE9       30.49F
MANCHESTER NH  FAIR      64  41  42 NE12G21   30.47F
NASHUA NH      FAIR      64  46  52 E10       30.49F
PORTSMOUTH NH  MOSUNNY   61  44  52 E14       30.49F
JAFFREY NH     FAIR      61  41  47 VRB3      30.48F
KEENE NH       FAIR      63  44  50 VRB3      30.47F
BURLINGTON VT  FAIR      68  45  43 E6        30.46F
MT. WASHINGTON MOSUNNY   45  27  49 E8          N/A
$$

NYZ052-076-291900-
EASTERN NEW YORK

CITY           SKY/WX    TMP DP  RH WIND       PRES   REMARKS
ALBANY         PTSUNNY   66  46  48 VRB3      30.43S
6HR MIN TEMP:  53; 6HR MAX TEMP:  66;

NEW YORK CITY  CLOUDY    65  53  65 E18       30.36F
6HR MIN TEMP:  62; 6HR MAX TEMP:  65;

$$

ANZALL-291900-
MARINE OBSERVATIONS

STATION/POSITION TIME  TEMP    WIND        PRES    VSBY  WAVE
                       AIR SEA DIR/SP/G                  HT/PER
                 (UTC) (F)     (DEG/KT/KT) (MB)    (MI)  (FT/S)
BOSTON BUOY      1750   57 62   40/ 17/ 21 1031.9S         8/ 8
BUZZARDS BAY     1800   59      40/ 27/ 31 1029.8F
NANTUCKET SOUND  1750   60 62   30/ 19/ 25 1029.3F         4/ 5
MASS BAY-STELLWA 1704   56 61   50/ 17/ 19 1032.3R  1 7/8  7/ 9
ISLE OF SHOALS   1800   56      40/ 19/ 20 1032.3F
S OF BLOCK IS    1725      66                N/A           8/ 9
$$

......................KEY.........................
  SKY/WX - SKY CONDITION/PRESENT WEATHER
  TMP    - TEMPERATURE IN FAHRENHEIT
  DWPT   - DEWPOINT IN FAHRENHEIT
  RH     - RELATIVE HUMIDITY IN PERCENT
  WIND   - DIRECTION AND SPEED IN MPH
  PRES   - MEAN SEA LEVEL PRESSURE IN INCHES OF HG
  WCI    - WIND CHILL INDEX
  VSB    - VISIBILITY IN MILES
  HX     - HEAT INDEX
  TC     - TEMPERATURE IN CELSIUS
  VRB    - VARIABLE WIND DIRECTION
  N/A    - NOT AVAILABLE




USA.gov is the U.S. government's official web portal to all federal, state and local government web resources and services.